Torna al catalogo

STARLINK-32942

AttivoComunicazioniVLEO
NORAD 63120·PAYLOAD·🇺🇸 United States

Lanciato Feb 27, 2025 da Cape Canaveral Space Force Station

Loading…

Prossimi Passaggi (prossime 24 ore)

TLE

AggiornatoSource: CelesTrak SupGP

Epoca: Sep 15, 2026, 02:42 UTC

1 63120C 25039S   26258.11298611 -.00002169  00000+0 -78554-4 0  2583
2 63120  43.0040  22.9356 0001945 269.2118 230.0408 15.27584422    18

Traccia STARLINK-32942 in tempo reale con AllMySat

Download on the App Store